Regional Weather Roundup
Issued by NWS Sioux Falls, SD

Home | Current Version | Previous Version | Text Only | Print | Product List | Glossary On
Versions: 1 2 3 4 5 6 7 8 9 10 11 12 13 14 15 16 17 18 19 20 21 22 23 24 25 26 27 28 29 30 31 32 33 34 35 36 37 38 39 40 41 42 43 44 45 46 47 48 49 50
000
ASUS43 KFSD 232110
RWRFSD

WEATHER ROUNDUP FOR SE SOUTH DAKOTA/SW MINNESOTA/NW IOWA
NATIONAL WEATHER SERVICE SIOUX FALLS SD
300 PM CST SUN NOV 23 2014

NOTE: "FAIR" INDICATES FEW OR NO CLOUDS BELOW 12,000 FEET WITH NO
SIGNIFICANT WEATHER AND OR OBSTRUCTIONS TO VISIBILITY.


SDZ038>040-050-052>070-232200-
SOUTHEAST SOUTH DAKOTA

CITY           SKY/WX    TMP DP  RH WIND       PRES   REMARKS
CHAMBERLAIN    CLOUDY    41  28  61 NW17G26   29.59F
HURON          CLOUDY    40  27  59 NW25G39   29.54F
MADISON        MOCLDY    37  32  81 NW24G35   29.51S
MITCHELL       NOT AVBL
SIOUX FALLS    CLOUDY    42  31  64 NW20G37   29.50F
WINNER         CLOUDY    45  24  43 NW29G37   29.61F
YANKTON        PTSUNNY  N/A N/A N/A NW28G38   29.53R
$$

MNZ071-072-080-081-089-090-097-098-232200-
SOUTHWEST MINNESOTA

CITY           SKY/WX    TMP DP  RH WIND       PRES   REMARKS
FAIRMONT       CLOUDY    43  36  75 NW21G28   29.41F
JACKSON        CLOUDY    41  37  87 NW17      29.44F
LUVERNE        CLOUDY    41  34  75 NW15      29.49S
MARSHALL       CLOUDY    41  30  65 NW18      29.47S
MONTEVIDEO     CLOUDY    39  39 100 NW12      29.47S
PIPESTONE      CLOUDY    39  34  81 NW16G22   29.47F
REDWOOD FALLS  CLOUDY    40  36  86 NW13      29.45S
TRACY          CLOUDY    42  36  79 NW15G21   29.47S
WINDOM         DRIZZLE   41  37  87 NW15      29.45S
WORTHINGTON    CLOUDY    39  36  87 NW17      29.47S
$$

IAZ001>003-012>014-020>022-031-032-NEZ013-014-SDZ071-232200-
NORTHWEST IOWA

CITY           SKY/WX    TMP DP  RH WIND       PRES   REMARKS
CHEROKEE       DRIZZLE   40  37  89 NW12G20   29.47R
DENISON        CLOUDY    43  39  87 NW16G25   29.44S
ESTHERVILLE    CLOUDY    42  38  85 NW18      29.42F
LE MARS        CLOUDY    43  36  75 NW14G25   29.50R
ORANGE CITY    CLOUDY    43  36  75 NW13G20   29.48S
SHELDON        CLOUDY    41  37  87 NW22      29.46S
SIOUX CITY     CLOUDY    45  35  68 NW17G29   29.49F
SPENCER        CLOUDY    42  38  85 NW16      29.45F
STORM LAKE     LGT RAIN  41  39  93 NW22G29   29.45S
$$

ABBREVIATIONS USED IN REMARKS
   TC - TEMPERATURE IN CELSIUS
  WCI - WIND CHILL INDEX
   HX - HEAT INDEX
  VSB - VISIBILITY



USA.gov is the U.S. government's official web portal to all federal, state and local government web resources and services.